Weather History for PHNY - September, 2014

Change the Weather History Date:

Sunday, September 7, 2014

  Actual Average Record
Temperature  
Mean Temperature 77 °F -  
Max Temperature 86 °F 83 °F 87 °F (1993)
Min Temperature 68 °F 66 °F 60 °F (1955)
Cooling Degree Days 12    
Growing Degree Days 27 (Base 50)    
Moisture  
Dew Point 66 °F    
Average Humidity 74    
Maximum Humidity 100    
Minimum Humidity 42    
Precipitation  
Precipitation 0.00 in - - ()
Sea Level Pressure  
Sea Level Pressure 29.97 in    
Wind  
Wind Speed 7 mph (NE)    
Max Wind Speed 20 mph    
Max Gust Speed -    
Visibility 10 miles    
Events Rain    
Averages and records for this station are not official NWS values.
T = Trace of Precipitation, MM = Missing Value Source: NWS Daily Summary

Daily Weather History Graph

Daily Weather History Graph

Search for Another Location

Airport or City:

Trip Planner

Search our weather history database for the weather conditions in past years. The results will help you decide how hot, cold, wet, or windy it might be!

Date:

Astronomy

Sep. 07, 2014 Rise Set
Actual Time 6:13 AM HST 6:37 PM HST
Civil Twilight 5:50 AM HST 7:00 PM HST
Nautical Twilight 5:24 AM HST 7:26 PM HST
Astronomical Twilight 4:58 AM HST 7:52 PM HST
Moon 5:42 PM HST (9/7) 4:46 AM HST (9/7)
Length of Visible Light 13h 09m
Length of Day
12h 24m
Waxing Gibbous, 98% of the Moon is Illuminated
Sep 7
Waxing Gibbous
Sep 8
Full
Sep 15
Last Quarter
Sep 23
New
Oct 1
First Quarter

Hourly Weather History & Observations

Time (HST) Temp. Heat Index Dew Point Humidity Pressure Visibility Wind Dir Wind Speed Gust Speed Precip Events Conditions
12:56 AM 68.0 °F - 64.9 °F 90% 29.97 in 10.0 mi NNE 5.8 mph - N/A   Clear
1:56 AM 70.0 °F - 64.9 °F 84% 29.96 in 10.0 mi NNE 6.9 mph - N/A   Clear
2:56 AM 68.9 °F - 66.9 °F 93% 29.94 in 10.0 mi North 8.1 mph - N/A   Clear
3:56 AM 70.0 °F - 66.9 °F 90% 29.93 in 10.0 mi NNE 9.2 mph - N/A   Clear
4:56 AM 69.8 °F - 68.0 °F 94% 30.00 in 10.0 mi NNE 9.2 mph - N/A   Clear
5:56 AM 68.9 °F - 66.9 °F 93% 29.95 in 10.0 mi NNE 9.2 mph - N/A   Clear
6:56 AM 70.9 °F - 68.0 °F 91% 29.96 in 10.0 mi NNE 6.9 mph - N/A   Clear
7:56 AM 75.9 °F - 65.8 °F 71% 29.97 in 10.0 mi NE 6.9 mph - N/A   Clear
8:56 AM 81.0 °F 81.3 °F 59.0 °F 47% 29.97 in 10.0 mi Calm Calm - N/A   Clear
9:56 AM 83.8 °F 83.6 °F 59.0 °F 43% 29.97 in 10.0 mi Variable 4.6 mph - N/A   Clear
10:56 AM 86.0 °F 86.3 °F 61.9 °F 44% 29.97 in 10.0 mi SW 5.8 mph - N/A   Clear
11:56 AM 86.9 °F 87.0 °F 61.0 °F 42% 29.96 in 10.0 mi WSW 5.8 mph - N/A   Clear
12:56 PM 81.0 °F 81.9 °F 61.9 °F 52% 29.96 in 10.0 mi WSW 4.6 mph - N/A   Overcast
1:08 PM 80.6 °F 81.8 °F 62.6 °F 54% 30.02 in 10.0 mi WSW 3.5 mph - N/A   Overcast
1:18 PM 80.6 °F 81.8 °F 62.6 °F 54% 30.02 in 10.0 mi Variable 3.5 mph - N/A   Overcast
1:56 PM 81.0 °F 82.5 °F 63.9 °F 56% 29.94 in 10.0 mi Variable 4.6 mph - N/A   Overcast
2:03 PM 80.6 °F 82.3 °F 64.4 °F 58% 30.01 in 10.0 mi Calm Calm - N/A   Overcast
2:56 PM 81.9 °F 84.8 °F 68.0 °F 63% 29.92 in 10.0 mi NNE 15.0 mph - N/A   Overcast
3:56 PM 82.9 °F 86.3 °F 68.9 °F 62% 29.92 in 10.0 mi NE 16.1 mph - N/A   Overcast
4:56 PM 81.0 °F 84.1 °F 68.9 °F 67% 29.92 in 10.0 mi NE 19.6 mph - N/A   Partly Cloudy
5:56 PM 77.9 °F - 68.9 °F 74% 29.94 in 10.0 mi NE 16.1 mph - N/A   Mostly Cloudy
6:56 PM 73.9 °F - 70.9 °F 90% 29.96 in 10.0 mi NE 13.8 mph - 0.00 in Rain Light Rain
7:56 PM 73.4 °F - 71.6 °F 94% 30.04 in 10.0 mi East 8.1 mph - N/A   Overcast
8:56 PM 72.9 °F - 70.9 °F 93% 29.99 in 10.0 mi ENE 4.6 mph - N/A   Clear
9:56 PM 72.0 °F - 70.9 °F 96% 30.00 in 10.0 mi NNE 6.9 mph - N/A   Partly Cloudy
10:56 PM 72.0 °F - 70.0 °F 93% 29.99 in 10.0 mi ENE 3.5 mph - N/A   Partly Cloudy
11:56 PM 70.0 °F - 70.0 °F 100% 29.98 in 10.0 mi East 4.6 mph - N/A   Clear